Location: Township of Marena
(38.1747°N, 99.6798°W)
Time: 03:30:55
(UTC+00:00)

Cosmos 1302 Rocket - Pass Details

Date: 26 October 2020
Orbit: 756 x 777 km, 74.0° (Epoch: 24 November)

Event Time Altitude Azimuth Distance (km) Brightness Sun altitude
Rises 00:21:28 0° 181° (S) 3,215 7.4 -7.5°
Reaches altitude 10° 00:23:53 10° 176° (S) 2,296 6.6 -7.9°
Maximum altitude 00:28:52 48° 103° (ESE) 1,004 4.3 -8.9°
Drops below altitude 10° 00:33:55 10° 30° (NNE) 2,324 6.1 -9.9°
Sets 00:36:22 0° 25° (NNE) 3,257 6.9 -10.4°
